This demonstration page uses our WeatherBlox Daily Observations layout. Learn more.

38.88101, -77.10428

Hourly Observations for June 21, 2017

Temp ( °F °C ) Dew Point ( °F °C ) Humidity (%) Winds ( mph kmh ) Pressure ( in mb ) Visibility ( mi km ) Precip ( " mm )
12:52 am 00:52 Mostly Cloudy 75 23.9 67 19.4 76 76 SW 7 11 29.97 1015 10 16.09344 0 0
1:52 am 01:52 Mostly Cloudy 75 23.9 67 19.4 76 76 S 6 9 29.97 1015 10 16.09344 0 0
2:52 am 02:52 Cloudy 73 22.8 67 19.4 81 81 SSW 8 13 29.94 1014 10 16.09344 0 0
3:52 am 03:52 Cloudy 72 22.2 67 19.4 84 84 SSW 6 9 29.94 1014 10 16.09344 0 0
4:52 am 04:52 Mostly Cloudy 72 22.2 67 19.4 84 84 SSW 6 9 29.94 1014 10 16.09344 0 0
5:52 am 05:52 Mostly Cloudy 71 21.7 67 19.4 87 87 SSW 5 7 29.97 1015 10 16.09344 0 0
6:52 am 06:52 Partly Cloudy 72 22.2 67 19.4 84 84 SSW 8 13 29.97 1015 10 16.09344 0 0
7:52 am 07:52 Partly Cloudy 74 23.3 68 20 82 82 SW 9 15 29.97 1015 10 16.09344 0 0
8:52 am 08:52 Mostly Sunny 77 25 69 20.6 77 77 SW 9 15 29.97 1015 10 16.09344 0 0
9:52 am 09:52 Mostly Sunny 80 26.7 71 21.7 74 74 S 7 11 29.97 1015 10 16.09344 0 0
10:52 am 10:52 Mostly Sunny 82 27.8 72 22.2 72 72 S 12 19 29.97 1015 10 16.09344 0 0
11:52 am 11:52 Partly Cloudy 84 28.9 70 21.1 63 63 S 10 17 29.97 1015 10 16.09344 0 0
12:52 pm 12:52 Mostly Cloudy 86 30 61 16.1 43 43 SW 8 13 29.94 1014 10 16.09344 0 0
1:52 pm 13:52 Mostly Cloudy 86 30 59 15 40 40 W 12 19 29.94 1014 10 16.09344 0 0
2:52 pm 14:52 Partly Cloudy 89 31.7 58 14.4 35 35 W 16 26 29.91 1013 10 16.09344 0 0
3:52 pm 15:52 Mostly Cloudy 87 30.6 58 14.4 37 37 WSW 13 20 29.91 1013 10 16.09344 0 0
4:52 pm 16:52 Mostly Cloudy 86 30 66 18.9 51 51 SSW 14 22 29.91 1013 10 16.09344 0 0
5:52 pm 17:52 Partly Cloudy 86 30 66 18.9 51 51 SSW 13 20 29.91 1013 10 16.09344 0 0
6:52 pm 18:52 Partly Cloudy 86 30 66 18.9 51 51 SSW 12 19 29.91 1013 10 16.09344 0 0
7:52 pm 19:52 Mostly Cloudy 85 29.4 67 19.4 55 55 SW 8 13 29.94 1014 10 16.09344 0 0
8:52 pm 20:52 Mostly Cloudy 83 28.3 69 20.6 63 63 S 8 13 29.94 1014 10 16.09344 0 0
9:52 pm 21:52 Mostly Cloudy 82 27.8 70 21.1 67 67 SSW 3 6 29.94 1014 10 16.09344 0 0
10:52 pm 22:52 Mostly Cloudy 81 27.2 72 22.2 74 74 S 7 11 29.97 1015 10 16.09344 0 0
11:52 pm 23:52 Cloudy 81 27.2 70 21.1 69 69 SSW 7 11 29.97 1015 10 16.09344 0 0

Powered by AerisWeather